Tracking 29799 objects as of 10-Oct-2024
HD Live streaming from Space Station
objects crossing your sky now

STARLINK-32425

Track STARLINK-32425 now!
10-day predictions


NORAD ID: 61216
Int'l Code: 2024-171S
Perigee: 417.9 km
Apogee: 419.2 km
Inclination: 53.2 °
Period: 92.8 minutes
Semi major axis: 6789 km
RCS: Unknown
Launch date: September 20, 2024
Source: United States (US)
Launch site: AIR FORCE WESTERN TEST RANGE (AFWTR)
Your satellite tracking list
Your tracking list is empty




NASA's NSSDC Master Catalog

Two Line Element Set (TLE):
1 61216U 24171S   24284.58334491 -.01328308  00000-0 -24204-1 0  9998
2 61216  53.1599 197.7473 0000906  89.7705 340.6983 15.51822785  4404
Source of the keplerian elements: AFSPC